Flag for United Kingdom Weather past 2 weeks in Newport (Isle of Wight), England, United Kingdom

Now
59 °F

Cool.


Feels Like: 59 °F
Forecast: 51 / 65 °F
Wind: 7 mph from West

Location: Saint Catherine's Point

Current Time: May 23, 2015 at 6:09:27 PM

Latest Report: May 23, 2015 at 5:00 PM


Visibility: N/A

Pressure: 30.22 "Hg

Humidity: 83%

Dew point: 54 °F

Location of Newport (Isle of Wight)Location

Historic Weather in Newport (Isle of Wight) — Graph

°F

Newport (Isle of Wight) temperature yesterday

Maximum temperature yesterday: 57 °F (at 11:00 PM)
Minimum temperature yesterday: 49 °F (at 3:00 AM)
Average temperature yesterday: 53 °F

Past Weeks' High & Low Weather Summary

 TemperatureHumidityPressure
High65 °F (May 23, 11:00 AM)100% (May 8, 10:00 PM)30.39 "Hg (May 8, 10:00 PM)
Low44 °F (May 20, 5:00 AM)64% (May 20, 9:00 PM)29.67 "Hg (May 19, 5:00 AM)
Average53 °F90%30.10 "Hg
* Reported May 8 4:00 PM — May 23 4:00 PM, Newport (Isle of Wight), Weather by CustomWeather, © 2015

Note: Actual official high and low records may vary slightly from our data, if they occured in-between our weather recording intervals... More about our weather records

Advertising

Newport (Isle of Wight) weather history for previous 24 hours

 ConditionsComfort  
Time TempWeatherWind HumidityBarometerVisibility
4:00 PM
Sat, May 23
58 °FCool.3 mph88%30.23 "HgN/A
3:00 PM58 °FCool.5 mph89%30.24 "HgN/A
2:00 PM58 °FCool.5 mph81%30.24 "HgN/A
1:00 PM59 °FCool.3 mph79%30.25 "HgN/A
12:00 PM62 °FCool.3 mph76%30.25 "HgN/A
11:00 AM65 °FMild.6 mph65%30.25 "HgN/A
10:00 AM60 °FCool.5 mph75%30.25 "HgN/A
9:00 AM62 °FCool.6 mph83%30.25 "HgN/A
8:00 AM58 °FCool.12 mph92%30.24 "HgN/A
7:00 AM58 °FCool.7 mph94%30.23 "HgN/A
6:00 AM58 °FCool.7 mph94%30.23 "HgN/A
5:00 AM58 °FCool.8 mph98%30.22 "HgN/A
3:00 AM59 °FCool.10 mph97%30.22 "HgN/A
2:00 AM59 °FCool.7 mph97%30.24 "HgN/A
1:00 AM58 °FCool.9 mph100%30.24 "HgN/A
12:00 AM56 °FCool.8 mph99%30.25 "HgN/A
11:00 PM
Fri, May 22
57 °FCool.8 mph100%30.25 "HgN/A
10:00 PM56 °FCool.8 mph100%30.25 "HgN/A
9:00 PM55 °FCool.8 mph100%30.24 "HgN/A
8:00 PM55 °FCool.8 mph100%30.24 "HgN/A
7:00 PM55 °FCool.8 mph100%30.24 "HgN/A
6:00 PM55 °FCool.7 mph100%30.25 "HgN/A
Weather by CustomWeather, © 2015

See weather overviewHow to use our weather pages